Regional Weather Roundup
Issued by NWS Cleveland, OH

Home | Current Version | Previous Version | Graphics & Text | Print | Product List | Glossary On
Versions: 1 2 3 4 5 6 7 8 9 10 11 12 13 14 15 16 17 18 19 20 21 22 23 24 25 26 27 28 29 30 31 32 33 34 35 36 37 38 39 40 41 42 43 44 45 46 47 48 49 50
000
ASUS41 KCLE 022310
RWRCLE
OHIO REGIONAL WEATHER ROUNDUP
NATIONAL WEATHER SERVICE CLEVELAND, OH
700 PM EDT TUE SEP 02 2014

NOTE: "FAIR" INDICATES FEW OR NO CLOUDS BELOW 12,000 FEET WITH NO
SIGNIFICANT WEATHER AND/OR OBSTRUCTIONS TO VISIBILITY.

OHZ001>008-015>018-024>027-034-035-043-044-030000-
   NORTHWEST OHIO

CITY           SKY/WX    TMP DP  RH WIND       PRES   REMARKS
DEFIANCE       MOSUNNY   79  64  60 NW6       29.90S
FINDLAY        PTSUNNY   75  66  73 SW3       29.91S
TOLEDO EXPRESS MOSUNNY   78  61  55 N7        29.89S
TOLEDO EXEC    MOSUNNY   78  61  55 N8        29.90S
LIMA           PTSUNNY   75  66  73 SW5       29.93S
$$

OHZ009>014-019>023-028>033-038-089-030000-
   NORTHEAST OHIO

CITY           SKY/WX    TMP DP  RH WIND       PRES   REMARKS
CLE-HOPKINS    PTSUNNY   73  67  81 W8        29.93R
CLE-LAKEFRONT  MOCLDY    73  68  84 W9        29.89F
CUY CO. ARPT   CLOUDY    72  70  94 W14       29.92R
LORAIN-ELYRIA  LGT RAIN  69  63  81 SW7       29.92S
ASHTABULA      MOCLDY    70  65  84 NW9       29.92R
AKRON-CANTON   MOCLDY    74  64  71 NW9       29.93R
WOOSTER        MOSUNNY   73  65  75 W9        29.94R
MANSFIELD      MOSUNNY   72  66  81 W5        29.94F
YOUNGSTOWN     MOCLDY    72  66  81 NW8       29.92R
$$

OHZ042-051>053-060>062-070>072-077>081-030000-
  SOUTHWEST OHIO

CITY           SKY/WX    TMP DP  RH WIND       PRES   REMARKS
CINC-COVINGTON MOSUNNY   78  70  76 NW3       29.93F
CINC-LUNKEN    PTSUNNY   76  71  85 S3        29.92F
HAMILTON       MOSUNNY   79  69  71 NW6       29.93F
DAYTON         PTSUNNY   78  66  66 NW6       29.94F
WRIGHT-PAT AFB MOSUNNY   77  71  81 S5        29.93F
DAYTON GENERAL MOSUNNY   77  67  71 W6        29.93F
WILMINGTON     MOSUNNY   77  65  66 W3        29.93F
$$

OHZ036-037-039>041-045>050-054>059-063>069-073>076-082>088-030000-
  CENTRAL AND SOUTHEAST OHIO

CITY           SKY/WX    TMP DP  RH WIND       PRES   REMARKS
COLUMBUS       MOSUNNY   78  65  63 W8        29.93S
OSU AIRPORT    MOSUNNY   76  68  76 SW7       29.93S
BOLTON FIELD   SUNNY     75  68  78 W3        29.95R
RICKENBACK AFB PTSUNNY   79  63  58 W8        29.93R
NEWARK         PTSUNNY   75  66  73 W8        29.94R
MARION         PTSUNNY   74  65  73 W5        29.93F
LANCASTER      CLOUDY    78  67  68 W6        29.95R
ZANESVILLE     PTSUNNY   76  66  71 W6        29.94R
NEW PHILLY     MOCLDY    76  66  71 W6        29.93R
$$


USA.gov is the U.S. government's official web portal to all federal, state and local government web resources and services.